WD4SFR-1 Weather Reports


Display with metric or nautical units.
time (UTC)temp
F
wind
direction
speed
MPH
gust
MPH
rain 1hr
in
rain 24hr
in
rain mn
in
humidity
%
barometer
mb
20260510111040 70 148 0.0 0.0 0.00 0.24 0.00 93 1030.0
20260510110024 70 148 0.0 0.0 0.00 0.24 0.00 93 1029.7
20260510105025 70 148 0.0 0.0 0.00 0.24 0.00 93 1029.5
20260510104026 70 148 0.0 0.0 0.00 0.24 0.00 93 1029.5
20260510103027 70 148 0.0 0.0 0.00 0.24 0.00 93 1029.5
20260510102032 70 148 0.0 0.0 0.00 0.24 0.00 93 1029.4
20260510101033 70 148 0.0 0.0 0.00 0.24 0.00 93 1029.3
20260510100034 70 148 0.0 0.0 0.00 0.24 0.00 93 1029.3
20260510095019 70 148 0.0 0.0 0.00 0.24 0.00 93 1029.0
20260510094020 70 148 0.0 0.0 0.00 0.24 0.00 93 1029.0
20260510093021 70 148 0.0 0.0 0.00 0.24 0.00 93 1029.0
20260510092026 70 148 0.0 0.0 0.00 0.24 0.00 93 1028.8
20260510091028 70 148 0.0 0.0 0.00 0.24 0.00 92 1028.7
20260510090028 70 148 0.0 0.0 0.00 0.24 0.00 93 1028.5
20260510085033 71 148 0.0 0.0 0.00 0.24 0.00 93 1028.5
20260510084034 71 148 0.0 0.0 0.00 0.24 0.00 93 1028.3
20260510083015 71 148 0.0 0.0 0.00 0.24 0.00 93 1028.3
20260510082020 71 148 0.0 0.0 0.00 0.24 0.00 93 1028.2
20260510081021 71 148 0.0 0.0 0.00 0.24 0.00 93 1028.1
20260510080022 71 148 0.0 0.0 0.00 0.24 0.00 92 1028.2
20260510075027 71 148 0.0 0.0 0.00 0.24 0.00 92 1028.3
20260510074028 71 148 0.0 0.0 0.00 0.24 0.00 92 1028.2
20260510073029 71 148 0.0 0.0 0.00 0.24 0.00 92 1028.2
20260510072030 71 148 0.0 0.0 0.00 0.24 0.00 92 1028.2
20260510071016 71 148 0.0 0.0 0.00 0.24 0.00 92 1028.2
20260510070024 71 148 0.0 1.0 0.00 0.24 0.00 92 1028.0
20260510065045 71 148 0.0 0.0 0.00 0.24 0.00 92 1028.0
20260510064030 71 148 0.0 0.0 0.00 0.24 0.00 92 1028.1
20260510063031 71 148 0.0 1.0 0.00 0.24 0.00 92 1028.4
20260510062033 71 152 1.0 2.0 0.00 0.24 0.00 92 1028.4
20260510061018 71 162 0.0 3.0 0.00 0.24 0.00 92 1028.4
20260510060020 71 147 0.0 2.0 0.00 0.24 0.00 92 1028.5
20260510055021 71 155 1.0 2.0 0.00 0.24 0.00 92 1028.7
20260510054026 71 134 0.0 2.0 0.00 0.24 0.00 92 1028.8
20260510053048 71 174 1.0 2.0 0.00 0.24 0.00 92 1029.0
20260510052028 71 155 0.0 1.0 0.00 0.24 0.00 92 1029.1
20260510051030 70 176 0.0 2.0 0.00 0.24 0.00 92 1029.3
20260510050036 70 160 0.0 1.0 0.00 0.28 0.00 92 1029.5
20260510045017 70 207 0.0 1.0 0.00 0.28 0.00 92 1029.7
20260510044038 70 207 0.0 1.0 0.00 0.28 0.00 92 1029.7
20260510043039 70 207 0.0 1.0 0.00 0.28 0.00 92 1029.7
20260510042023 70 207 0.0 0.0 0.00 0.28 0.00 92 1029.5
20260510041025 70 207 0.0 1.0 0.00 0.28 0.00 92 1029.7
20260510040026 70 207 0.0 1.0 0.00 0.29 0.28 92 1029.6
20260510035031 70 207 0.0 0.0 0.00 0.29 0.28 91 1029.6
20260510034033 71 207 0.0 0.0 0.00 0.29 0.28 91 1029.6
20260510033035 71 207 0.0 1.0 0.00 0.29 0.28 91 1029.8
20260510032020 71 207 0.0 1.0 0.00 0.29 0.28 91 1029.8
20260510031021 71 220 0.0 1.0 0.00 0.29 0.28 91 1029.9
20260510030023 71 220 0.0 1.0 0.00 0.29 0.28 91 1029.8
20260510025028 71 220 0.0 1.0 0.00 0.29 0.28 91 1029.5
20260510024030 71 220 0.0 1.0 0.00 0.29 0.28 91 1029.4
20260510023031 71 220 0.0 1.0 0.00 0.29 0.28 91 1029.2
20260510022017 71 220 0.0 0.0 0.00 0.29 0.28 91 1028.9
20260510021018 71 220 0.0 0.0 0.00 0.29 0.28 91 1028.9
20260510020021 71 220 0.0 0.0 0.00 0.29 0.28 91 1028.7
20260510015021 71 220 0.0 1.0 0.00 0.29 0.28 91 1028.7
20260510014027 71 220 0.0 1.0 0.00 0.29 0.28 90 1028.6
20260510013028 71 220 0.0 0.0 0.00 0.29 0.28 90 1028.3
20260510012051 71 220 0.0 1.0 0.00 0.29 0.28 90 1028.1
20260510011035 71 221 0.0 1.0 0.00 0.29 0.28 90 1028.0
20260510010016 71 221 0.0 1.0 0.01 0.29 0.28 90 1028.1
20260510005038 71 221 0.0 0.0 0.01 0.29 0.28 90 1028.2
20260510004019 71 221 0.0 1.0 0.01 0.29 0.28 90 1028.4
20260510003024 71 221 0.0 1.0 0.02 0.29 0.28 90 1028.2
20260510002046 71 220 1.0 1.0 0.02 0.29 0.28 90 1028.2
20260510001026 71 220 0.0 1.0 0.03 0.29 0.28 89 1028.4
20260510000032 71 300 0.0 1.0 0.02 0.28 0.27 89 1028.6
20260509235033 71 300 0.0 1.0 0.02 0.28 0.27 89 1028.8
20260509234015 71 273 0.0 1.0 0.02 0.28 0.27 89 1028.8
20260509233040 72 307 0.0 1.0 0.01 0.27 0.26 88 1028.8
20260509232021 72 328 0.0 1.0 0.01 0.27 0.26 88 1028.7
20260509231022 72 328 1.0 2.0 0.00 0.26 0.25 88 1028.6
20260509230024 72 41 0.0 2.0 0.00 0.46 0.25 88 1028.6
20260509225029 72 20 1.0 3.0 0.01 0.46 0.25 88 1028.4
20260509224031 72 341 2.0 6.0 0.01 0.46 0.25 88 1028.4
20260509223052 72 10 0.0 6.0 0.01 0.46 0.25 88 1028.3
20260509222018 72 330 1.0 4.0 0.01 0.46 0.25 88 1028.4
20260509221019 72 8 2.0 4.0 0.01 0.46 0.25 87 1028.5
20260509220021 73 31 4.0 8.0 0.01 0.46 0.25 87 1028.3
20260509215026 73 322 1.0 5.0 0.00 0.45 0.24 88 1028.4
20260509214028 73 302 1.0 4.0 0.00 0.45 0.24 87 1028.1
20260509213029 73 23 1.0 5.0 0.00 0.45 0.24 87 1027.9
20260509212015 73 18 1.0 4.0 0.00 0.45 0.24 87 1027.8
20260509211036 73 328 2.0 5.0 0.00 0.45 0.24 87 1027.9
20260509210017 73 281 0.0 4.0 0.00 0.45 0.24 87 1028.0
20260509205018 73 319 2.0 6.0 0.02 0.45 0.24 86 1027.7
20260509204024 74 295 2.0 9.0 0.02 0.45 0.24 86 1027.9
20260509203025 75 346 3.0 8.0 0.02 0.45 0.24 88 1027.8
20260509202027 75 358 2.0 8.0 0.10 0.45 0.24 88 1027.8
20260509201052 75 307 2.0 5.0 0.16 0.45 0.24 87 1027.6
20260509200033 75 335 3.0 6.0 0.16 0.45 0.24 87 1027.8
20260509195054 75 7 0.0 1.0 0.14 0.43 0.22 88 1027.7
20260509194019 75 217 0.0 1.0 0.16 0.43 0.22 88 1027.7
20260509193019 75 316 1.0 2.0 0.18 0.43 0.22 86 1027.8
20260509192022 76 356 2.0 5.0 0.09 0.34 0.13 84 1028.4
20260509191023 77 305 2.0 4.0 0.04 0.29 0.08 85 1027.9
20260509190029 78 328 1.0 2.0 0.04 0.29 0.08 84 1027.9
20260509185029 78 237 0.0 1.0 0.04 0.29 0.08 81 1027.9
20260509184032 79 231 0.0 1.0 0.01 0.26 0.05 78 1027.8
20260509183017 80 214 0.0 2.0 0.00 0.25 0.04 75 1027.9
20260509182018 81 205 0.0 2.0 0.00 0.25 0.04 72 1027.9
20260509181020 81 326 1.0 2.0 0.00 0.25 0.04 71 1027.9
20260509180025 81 101 0.0 2.0 0.00 0.25 0.04 71 1028.0
20260509175026 81 259 1.0 3.0 0.00 0.25 0.04 70 1028.1
20260509174029 82 212 1.0 3.0 0.00 0.25 0.04 71 1028.3
20260509173013 81 203 1.0 2.0 0.00 0.25 0.04 72 1028.3
20260509172015 80 50 1.0 3.0 0.00 0.25 0.04 74 1028.3
20260509171017 80 78 3.0 6.0 0.00 0.25 0.04 74 1028.2
20260509170022 80 128 1.0 4.0 0.00 0.25 0.04 76 1028.3
20260509165023 79 129 2.0 4.0 0.00 0.25 0.04 76 1028.4
20260509164026 79 119 1.0 4.0 0.00 0.25 0.04 77 1028.4
20260509163047 79 91 2.0 4.0 0.00 0.25 0.04 76 1028.6
20260509162032 79 113 1.0 3.0 0.00 0.25 0.04 77 1028.7
20260509161054 79 94 2.0 3.0 0.00 0.25 0.04 76 1028.6
20260509160014 78 110 0.0 2.0 0.00 0.25 0.04 77 1028.8
20260509155019 78 283 0.0 2.0 0.00 0.25 0.04 77 1028.8
20260509154022 78 328 1.0 2.0 0.00 0.25 0.04 78 1028.8
20260509153022 77 126 1.0 3.0 0.00 0.25 0.04 78 1028.6
20260509152028 77 78 2.0 3.0 0.00 0.25 0.04 79 1028.6
20260509151030 77 153 0.0 1.0 0.00 0.25 0.04 78 1028.6
20260509150031 77 172 0.0 2.0 0.00 0.25 0.04 78 1028.6
20260509145016 77 106 1.0 4.0 0.00 0.25 0.04 79 1028.9
20260509144019 77 329 2.0 2.0 0.00 0.25 0.04 79 1028.7
20260509143019 77 223 0.0 2.0 0.00 0.25 0.04 80 1028.7
20260509142024 76 156 0.0 2.0 0.00 0.25 0.04 81 1028.6
20260509141027 75 191 1.0 3.0 0.00 0.25 0.04 82 1028.6
20260509140027 75 157 0.0 2.0 0.00 0.25 0.04 83 1028.5
20260509135013 74 246 0.0 2.0 0.00 0.25 0.04 83 1028.9
20260509134015 74 257 1.0 3.0 0.00 0.25 0.04 83 1029.0
20260509133016 74 325 1.0 3.0 0.00 0.25 0.04 84 1028.9
20260509132017 73 214 1.0 2.0 0.00 0.25 0.04 84 1028.6
20260509131024 73 312 1.0 2.0 0.00 0.25 0.04 84 1028.4
20260509130024 73 167 1.0 3.0 0.00 0.25 0.04 85 1028.3
20260509125026 72 179 1.0 3.0 0.00 0.25 0.04 85 1028.2
20260509124032 72 218 0.0 2.0 0.00 0.25 0.04 85 1028.3
20260509123013 71 194 1.0 3.0 0.00 0.25 0.04 86 1028.0
20260509122014 71 198 2.0 4.0 0.00 0.25 0.04 87 1027.8
20260509121021 70 152 1.0 3.0 0.00 0.25 0.04 88 1027.9
20260509120021 69 169 0.0 2.0 0.00 0.29 0.04 88 1027.7
20260509115023 68 151 1.0 3.0 0.00 0.29 0.04 89 1027.7
20260509114029 68 203 1.0 3.0 0.00 0.29 0.04 89 1027.5
20260509113030 67 226 2.0 4.0 0.00 0.29 0.04 89 1027.4
20260509112031 67 217 1.0 4.0 0.00 0.29 0.04 90 1027.4